User: anonymous   Login
Location: Unspecified
(0.0000°N, 0.0000°E)
Time: 07:46:38
(UTC+00:00)
Language:

Geosat FO - Orbit

View from above orbital plane
View from above orbital plane
View from above satellite
View from above satellite

Ground track
Ground track

The orbit data is extracted from the following two-line orbital elements,

1 25157U 98007A   19049.92831985 +.00000116 +00000-0 +23485-4 0  9996
2 25157 108.0396 006.9680 0172526 223.4004 135.3477 15.00723746121184
Epoch (UTC): 18 February 2019 22:16:46
Eccentricity: 0.0172526
inclination: 108.0396°
perigee height: 445 km
apogee height: 684 km
right ascension of ascending node: 6.9680°
argument of perigee: 223.4004°
revolutions per day: 15.00723746
mean anomaly at epoch: 135.3477°
orbit number at epoch: 12118

The dashed part of the orbit path shows where the satellite is in the earth's shadow,  

DLR